RH
13 11 9 10 12 15 19 21 26 29 35 47 56 60 57 57 65 66 65 65 65 71 75 75 76 77 78 77 76 79 80 79 75 75 75 67 60 56 49 46 45 43 43 43 40 35 35 33 27 21 19 23 24 28 32 35 39 36 35 39 38 38 35 30 33 37 40 43 47 50 48 48 51 51 52 54 55 54 47 42 43 41 40 41 43 44
13 11 8 8 10 14 18 21 25 29 34 44 53 58 56 54 59 63 64 66 65 69 76 76 73 74 76 77 77 77 78 78 77 78 79 73 65 60 54 49 48 46 42 43 42 37 36 34 27 19 17 21 23 27 31 34 38 36 36 38 38 39 34 29 32 36 43 43 45 49 48 48 49 49 51 53 54 51 42 39 41 39 37 39 42 44
13 12 9 8 10 13 17 21 25 29 31 38 48 57 60 56 55 59 63 64 64 66 73 74 73 74 75 76 78 78 78 78 78 78 77 75 70 64 58 52 51 50 45 44 43 38 37 35 28 20 17 20 23 27 30 33 35 35 36 36 37 39 34 31 31 34 41 43 45 49 48 49 50 49 52 54 53 47 40 39 39 37 35 37 41 44
14 12 9 9 12 13 16 20 23 28 30 33 44 54 60 58 53 55 60 64 64 63 67 69 72 78 80 79 79 79 79 76 77 79 76 75 73 69 64 57 53 52 48 46 45 42 40 35 28 24 21 20 23 26 28 31 33 34 36 33 33 37 35 32 30 32 38 41 45 50 51 51 48 49 53 54 53 45 39 39 37 36 36 36 38 43
16 13 9 10 13 13 15 20 22 26 30 34 42 48 53 55 49 47 54 62 63 62 63 66 73 80 82 82 79 77 79 78 78 81 79 77 76 75 72 64 58 53 49 50 47 44 42 36 29 27 25 23 22 25 27 29 31 33 34 30 30 33 35 32 29 31 37 38 42 49 55 55 49 51 54 52 54 48 41 39 36 35 37 36 37 42
17 15 11 10 13 14 15 22 26 27 30 36 41 45 50 51 47 44 46 55 64 68 64 62 73 78 76 79 78 74 76 78 78 78 78 78 76 76 77 73 65 57 53 54 50 46 46 41 32 28 26 25 25 25 27 28 30 32 30 27 28 30 32 32 28 28 32 33 38 45 53 55 49 49 50 48 50 48 44 43 38 34 36 37 36 39
18 16 13 10 12 14 15 25 34 31 31 37 40 43 48 50 49 46 43 46 57 65 62 56 63 69 72 73 72 73 73 74 79 79 78 78 74 73 76 76 70 63 59 58 54 52 52 46 36 30 26 25 27 27 27 28 28 30 28 24 26 27 28 30 27 26 29 29 34 40 47 49 45 45 46 46 45 45 47 47 41 35 36 39 38 38
17 16 14 12 13 16 21 30 35 32 33 36 37 40 45 49 50 48 43 42 45 52 58 58 57 64 74 74 69 72 75 75 78 78 78 80 77 75 74 73 71 68 65 62 56 55 56 52 42 35 30 25 27 28 28 27 26 28 27 23 24 25 26 27 26 25 26 28 31 36 42 44 41 42 43 44 44 43 48 50 43 37 35 39 41 39
16 18 18 18 21 24 27 30 30 28 30 32 35 39 41 45 50 47 42 41 42 45 53 56 55 64 74 73 74 79 79 79 80 76 75 76 76 77 74 72 73 71 68 66 60 56 56 55 48 42 35 28 27 27 27 27 26 28 27 22 22 24 25 25 24 24 24 26 29 32 38 41 39 41 42 44 45 42 47 50 45 41 36 36 41 39
18 24 25 24 28 30 27 25 23 23 25 28 35 41 41 42 46 47 44 42 44 46 48 49 52 64 69 69 79 85 80 80 82 78 75 72 72 75 75 73 75 73 69 68 66 61 58 58 53 48 41 32 29 28 27 28 28 30 29 23 21 22 24 24 24 23 22 25 28 28 34 38 38 41 41 42 45 43 45 48 44 42 37 35 38 38
29 33 33 28 30 30 25 21 19 20 23 25 33 39 42 43 42 46 47 46 48 48 48 45 47 57 64 68 77 79 73 75 78 74 71 69 69 74 75 73 75 76 72 68 67 65 63 61 56 52 46 39 36 33 30 29 29 31 31 25 22 21 22 22 23 24 22 23 26 26 29 34 37 40 40 40 43 43 44 44 42 42 39 35 36 37
34 35 35 31 29 27 23 20 19 21 23 26 32 38 44 46 44 47 47 46 51 51 47 44 43 50 59 65 70 70 71 75 75 71 69 68 68 70 71 71 72 75 74 70 68 65 64 64 62 59 56 48 42 38 34 31 30 32 33 28 23 22 21 21 21 23 22 22 24 25 26 29 32 37 39 39 40 41 40 41 41 41 41 40 39 39
33 38 38 32 30 26 23 24 25 24 23 27 34 37 44 48 47 47 45 44 47 47 45 42 42 52 61 62 63 67 73 78 78 76 73 70 70 69 67 68 68 69 73 72 67 65 64 64 64 63 63 58 49 41 36 34 32 33 35 31 25 22 21 21 21 21 21 21 22 23 24 26 28 31 35 36 37 37 35 37 40 38 39 42 43 43
36 42 41 33 33 29 23 26 31 27 22 27 30 31 38 44 46 47 44 44 44 41 41 39 42 57 66 63 61 65 71 74 77 77 73 70 70 68 67 67 65 64 69 70 66 68 69 65 64 63 64 63 58 48 40 36 35 36 38 35 27 21 20 20 20 20 20 20 21 22 23 24 27 29 32 34 36 35 32 34 38 37 36 38 40 43
37 40 37 33 37 33 22 27 38 32 23 25 28 30 35 38 40 41 39 41 41 38 37 36 41 56 66 66 64 65 67 69 71 71 70 70 68 65 66 68 68 65 66 68 67 68 70 68 65 64 63 62 61 56 48 42 38 38 40 40 33 23 20 20 20 20 20 19 20 21 21 22 25 28 30 33 35 35 33 33 37 39 39 36 36 40
34 34 33 32 35 31 23 29 38 31 25 26 27 32 36 34 33 32 31 34 34 33 35 38 46 56 61 64 63 62 65 65 67 69 70 69 66 62 62 65 68 67 66 68 68 65 66 67 66 65 64 63 64 62 57 50 45 42 41 42 39 29 22 20 19 19 19 19 19 19 20 21 22 26 29 31 34 35 34 34 35 38 39 37 35 37
30 30 30 28 25 25 26 31 30 25 26 28 24 24 25 25 26 27 29 30 28 29 35 42 52 58 59 60 60 61 65 65 66 67 66 66 65 60 58 61 65 66 67 70 69 64 62 64 66 66 67 66 65 66 64 59 54 49 45 44 43 39 31 24 21 20 20 19 19 18 19 19 20 23 26 29 31 33 34 34 34 35 36 36 34 34
27 27 28 26 22 21 26 28 24 20 23 26 24 19 17 20 24 26 30 30 25 26 35 43 49 54 59 61 61 62 66 69 68 66 63 64 64 59 56 59 64 65 69 70 67 64 61 61 63 67 70 68 67 68 67 64 61 57 53 49 47 45 41 32 24 22 21 20 19 19 18 19 19 20 23 27 29 31 34 34 33 33 34 34 33 33
28 29 29 27 24 21 20 21 20 19 19 24 26 19 17 22 24 24 29 31 26 23 33 45 47 48 54 57 60 63 65 69 70 68 65 63 63 60 55 59 65 67 68 68 66 65 63 62 65 68 70 71 71 70 70 69 67 64 60 56 53 52 51 44 34 27 23 20 20 20 18 18 19 18 20 27 30 31 34 34 32 32 32 32 32 32
30 33 32 29 26 22 18 16 18 20 19 20 21 17 18 24 25 23 24 28 29 22 28 48 53 53 57 57 59 63 64 65 67 68 67 64 64 63 56 56 63 66 67 67 66 66 64 62 65 68 70 71 72 73 73 72 69 66 64 63 62 61 58 55 51 40 30 24 21 21 20 18 18 19 18 24 30 31 33 33 32 31 32 31 30 30
30 33 33 30 26 21 17 14 15 19 20 22 21 19 21 25 26 27 23 25 30 24 26 47 59 61 63 62 62 63 63 63 64 64 63 63 66 67 58 53 56 63 67 68 65 63 62 61 62 66 68 69 72 73 73 71 68 67 66 66 65 63 59 60 62 54 43 36 29 25 25 20 18 19 17 20 26 30 32 32 32 31 30 30 29 28
32 34 36 32 26 21 19 17 17 18 21 25 24 21 23 26 26 28 26 26 27 26 32 48 62 63 62 63 64 64 62 61 63 64 60 59 64 68 63 54 52 59 63 62 59 57 56 55 56 60 64 68 71 73 74 73 72 72 70 66 63 61 60 63 65 61 55 49 39 32 31 27 21 19 18 19 22 27 30 30 31 30 30 29 29 28
33 34 38 35 28 26 25 21 18 17 18 21 22 23 25 26 26 26 28 28 26 30 39 50 61 65 62 61 62 62 62 60 62 63 59 57 61 64 63 56 52 56 58 58 58 56 53 50 51 56 60 64 69 72 73 73 73 75 74 70 65 63 62 61 61 64 65 58 47 39 35 33 29 22 20 21 22 24 26 28 29 29 28 29 28 27
28 33 39 37 32 29 26 21 17 16 16 16 17 20 24 26 27 28 29 30 29 30 39 48 58 66 63 60 60 61 61 60 59 58 54 54 57 58 57 53 51 54 56 59 61 59 55 52 52 56 59 62 66 68 71 72 72 74 75 73 70 66 64 60 57 62 70 67 60 53 44 38 36 30 24 25 25 24 24 24 26 26 26 27 26 25
24 33 37 36 35 29 23 20 19 17 17 18 18 20 25 29 30 31 30 32 31 29 36 48 59 64 61 59 59 57 57 57 57 54 50 48 50 53 53 50 48 51 54 56 60 62 63 60 57 59 61 64 66 68 71 73 73 74 76 78 75 70 68 68 64 62 66 70 68 63 55 47 43 39 33 28 26 25 25 24 24 25 25 25 24 23
25 33 33 37 41 38 35 31 24 19 18 20 21 22 25 27 28 30 31 33 34 34 42 54 64 66 61 58 58 56 55 55 56 54 50 47 48 51 54 51 48 48 52 54 56 62 67 65 63 63 64 65 67 68 71 74 75 77 78 79 78 75 74 75 73 67 66 71 70 65 64 60 51 45 40 36 30 27 27 27 25 25 25 25 24 23
25 32 33 38 42 42 45 41 28 22 21 19 19 19 20 23 26 28 31 36 39 41 50 57 60 63 63 60 59 59 57 55 54 53 49 48 47 47 49 51 49 47 50 53 55 59 63 65 66 67 66 64 65 66 68 71 74 77 79 79 78 80 81 76 72 69 68 69 67 66 70 70 63 55 48 45 41 34 30 29 28 27 26 26 26 24
26 29 29 33 37 38 41 38 28 25 25 22 21 19 17 20 23 25 29 36 37 40 52 57 53 55 60 60 59 61 60 55 52 51 50 48 46 42 42 47 49 47 48 51 54 57 60 63 67 69 68 66 66 68 68 70 71 73 79 82 80 82 82 76 70 69 68 67 67 68 70 70 69 67 61 55 50 44 38 34 31 30 29 27 28 27
25 27 27 26 30 35 37 35 29 26 27 27 25 20 17 17 19 21 27 33 33 38 50 54 53 56 58 58 60 61 58 54 51 50 49 49 47 44 41 42 47 48 47 49 51 54 58 62 66 69 69 68 68 70 71 72 70 70 74 79 80 80 82 82 78 74 73 72 71 70 67 65 64 65 65 63 56 50 47 42 37 36 34 30 29 28
22 28 32 28 26 28 30 32 31 27 28 28 23 19 18 17 16 18 24 27 29 37 43 45 52 59 61 59 59 59 57 54 52 50 49 48 46 44 42 43 47 47 45 46 49 50 54 58 62 66 68 66 65 66 70 73 73 73 74 76 78 78 79 83 84 81 78 78 76 73 71 70 67 64 66 69 65 57 52 48 44 45 43 37 33 32
24 29 33 29 26 25 23 25 28 28 28 27 23 20 18 17 17 18 22 23 26 35 43 47 51 57 61 60 57 56 55 55 55 54 51 49 47 44 43 44 46 44 41 42 45 48 50 53 56 60 63 64 62 61 66 72 75 76 76 75 76 76 76 79 82 81 81 80 79 76 75 76 76 72 70 71 71 67 62 56 52 51 48 42 37 36
27 29 30 29 27 25 22 22 23 23 24 25 24 22 19 18 18 19 20 21 24 30 39 48 51 52 55 56 54 54 53 52 55 55 53 51 49 46 47 46 43 39 37 39 42 46 48 50 53 55 56 58 59 59 62 67 74 78 78 76 77 77 77 79 81 82 82 82 82 81 78 78 77 76 74 70 68 70 70 64 59 58 56 52 45 39
29 29 31 30 26 23 24 24 22 19 19 20 20 20 20 19 18 18 18 19 23 26 31 42 52 54 53 51 50 51 51 50 52 54 53 53 51 49 49 45 38 35 36 37 39 43 46 48 51 53 53 52 53 55 58 61 67 75 80 79 77 75 75 78 81 82 81 81 85 87 86 84 80 77 76 72 69 72 73 66 61 65 71 68 59 49
31 31 33 33 26 25 31 29 23 20 20 19 18 16 18 20 18 18 19 20 25 29 30 38 48 51 51 52 53 52 51 49 49 51 52 51 49 50 49 42 36 34 35 35 36 39 41 44 47 49 50 50 49 50 53 55 58 64 71 77 77 76 74 71 73 77 77 79 85 88 87 86 83 78 76 73 71 73 73 67 63 69 76 75 71 66
30 29 31 32 29 30 36 33 27 26 24 22 21 17 16 19 19 19 20 23 26 29 31 38 46 47 48 51 54 53 52 51 48 47 49 50 48 48 47 43 37 34 32 33 34 36 37 38 40 43 45 46 46 47 47 50 52 51 55 62 68 75 76 70 67 70 72 74 80 84 85 85 85 83 81 76 71 70 71 68 65 66 68 68 69 70
28 27 29 32 31 32 36 36 35 35 30 25 22 19 18 19 19 21 24 28 29 29 31 37 46 48 46 48 52 51 51 52 49 46 48 49 48 47 47 45 40 35 31 30 31 33 35 35 35 37 39 40 43 44 43 46 49 48 46 47 52 65 74 72 67 67 69 70 72 75 79 82 84 87 87 82 77 75 75 72 67 65 65 67 66 65
25 28 30 33 32 28 30 38 41 39 34 30 26 23 20 21 20 20 24 29 29 26 29 34 39 42 43 45 49 49 49 50 48 47 48 46 43 43 44 42 39 35 31 29 28 29 32 34 33 33 35 35 37 39 40 43 46 47 46 42 41 48 59 65 66 65 66 69 68 70 75 78 80 84 86 84 81 79 78 75 71 69 70 71 69 67
21 25 28 34 34 26 26 35 40 39 37 34 32 30 25 23 22 18 19 28 29 23 26 32 34 35 37 40 43 44 43 42 43 45 47 43 40 40 40 38 35 33 30 28 26 25 28 32 31 31 32 33 34 34 36 40 43 44 45 44 40 41 45 50 56 58 60 64 64 67 73 76 77 80 83 83 82 81 80 77 74 73 72 71 70 70
21 22 23 29 34 32 30 30 31 39 47 40 34 34 30 27 26 19 16 27 32 26 25 30 33 33 33 35 39 37 33 34 42 47 47 44 41 39 37 35 32 30 29 28 26 26 28 29 28 28 29 30 32 32 32 36 39 41 43 43 42 43 45 44 45 48 52 58 59 61 69 73 73 75 78 80 82 83 82 80 78 76 75 74 72 71
21 21 20 22 26 31 35 31 27 38 49 42 33 33 32 28 26 19 17 27 34 30 27 31 34 33 33 34 35 31 27 32 42 45 44 43 42 39 36 33 31 31 31 31 29 29 29 28 25 26 27 27 29 30 29 32 35 37 41 41 40 42 45 45 44 42 43 48 52 54 62 67 66 66 70 73 77 82 83 81 79 80 81 81 79 76
21 19 17 18 21 24 28 29 29 37 44 38 32 33 31 26 25 25 29 36 37 31 29 32 34 35 35 34 31 28 29 32 36 38 39 40 40 38 36 33 30 30 30 30 31 31 30 29 27 26 27 26 26 26 26 28 31 33 37 39 39 39 40 43 47 46 41 41 44 46 53 59 60 59 61 64 66 72 79 81 81 81 83 84 84 84
29 25 20 20 21 22 24 23 25 35 44 39 34 32 30 28 30 34 38 40 39 36 34 34 35 37 36 32 28 29 32 31 31 34 35 34 34 34 33 31 29 27 27 28 29 28 27 28 28 28 27 26 24 24 25 26 28 30 32 35 37 38 38 40 44 47 45 44 44 44 46 51 53 53 57 61 61 62 68 76 81 82 81 82 84 86
36 35 33 30 26 24 25 23 24 35 43 40 36 35 33 33 36 39 40 39 38 38 37 37 38 39 38 32 28 29 31 28 25 29 30 30 32 32 31 31 29 27 26 24 23 23 23 24 25 25 25 25 24 24 25 25 26 27 28 30 31 33 37 39 40 42 45 49 49 46 43 46 47 46 50 59 62 59 59 65 72 75 74 77 81 83
34 36 40 42 37 32 31 31 33 38 43 41 40 41 41 38 38 39 40 41 38 36 36 37 38 37 35 33 29 26 25 23 21 22 23 24 26 27 28 28 26 24 23 20 19 20 21 21 22 22 22 23 23 23 23 24 25 25 24 24 25 27 32 35 35 36 42 47 50 48 44 43 45 44 46 54 60 61 60 61 64 67 67 69 74 78
32 33 36 41 44 42 42 45 46 46 48 46 44 44 44 42 41 39 39 39 38 37 37 38 39 36 32 29 27 24 21 20 19 19 20 19 19 20 22 23 22 21 21 20 21 22 22 21 22 22 22 23 24 23 23 22 23 24 23 22 22 24 26 27 28 32 36 39 44 49 47 43 45 49 50 49 49 54 60 63 65 67 67 67 68 71
34 34 33 36 40 41 43 47 49 50 52 51 47 45 44 44 43 41 39 39 38 36 36 36 37 38 33 27 24 21 19 19 19 19 19 19 19 20 21 21 22 23 22 23 23 23 23 22 23 23 24 24 25 25 24 24 24 24 24 23 23 22 21 21 22 26 29 31 36 43 47 45 46 51 50 46 45 47 52 59 65 69 69 67 65 66
40 38 37 36 36 37 39 42 44 46 50 51 50 48 46 45 43 39 35 36 35 34 35 34 31 30 28 25 23 22 20 19 18 18 19 19 20 20 21 23 24 24 24 25 24 24 24 24 24 25 25 25 26 25 25 25 25 23 23 24 25 24 22 21 22 23 24 26 28 32 37 42 45 46 46 46 47 46 44 46 56 66 71 70 65 63
50 48 46 44 40 37 36 38 40 42 44 46 47 45 43 45 46 41 33 30 29 29 31 31 28 26 25 23 21 21 20 20 19 19 20 20 20 21 22 23 24 25 25 25 25 25 25 25 25 25 25 24 25 25 25 26 25 25 24 24 25 26 24 23 23 23 24 26 25 24 27 32 36 40 43 44 44 44 42 40 42 52 63 68 64 60
54 52 54 55 52 48 43 40 40 40 40 41 42 41 41 43 47 47 42 37 34 33 31 29 26 25 26 27 27 23 21 20 20 20 20 19 19 20 21 22 23 24 24 24 24 24 24 24 24 24 24 23 23 23 23 24 24 25 25 24 24 26 27 26 25 25 25 25 25 24 24 25 28 32 36 37 37 38 40 37 35 37 45 54 57 58
57 57 57 58 59 60 58 55 52 48 46 45 45 45 46 45 45 45 44 42 40 40 38 35 31 28 28 30 31 29 29 28 25 22 21 20 19 19 20 21 22 22 23 23 23 23 24 24 24 24 23 23 23 22 22 23 23 24 25 24 24 25 26 27 27 26 26 25 25 25 25 25 25 26 28 30 30 30 31 33 35 36 37 40 46 52
65 67 65 63 63 63 63 63 62 60 57 55 53 52 51 49 47 46 44 43 43 44 43 41 39 37 36 35 33 32 33 33 30 25 22 21 20 20 20 21 21 21 22 22 23 23 23 23 23 24 24 24 24 23 23 22 22 23 23 24 25 25 25 26 26 26 26 25 25 25 25 25 26 25 25 27 28 28 30 32 35 37 37 36 37 40